Location: Ames
(42.0350°N, 93.6200°W)
Time: 11:51:32
(UTC-05:00)

ISS - All Passes

Search period start: 30 September 2016 00:00
Search period end: 10 October 2016 00:00
Orbit: 400 x 409 km, 51.6° (Epoch: 30 September)

Date Brightness Start Highest point End Pass type
(mag) Time Alt. Az. Time Alt. Az. Time Alt. Az.
30 Sep - 01:15:20 10° NW 01:18:11 27° NNE 01:21:04 10° E night (unlit)
30 Sep - 02:51:38 10° WNW 02:54:50 52° SW 02:58:02 10° SE night (unlit)
30 Sep - 19:31:43 10° SSW 19:34:44 36° SE 19:37:46 10° ENE visible
30 Sep - 21:08:15 10° W 21:11:14 32° NNW 21:14:13 10° NE visible
30 Sep - 22:46:23 10° NW 22:48:27 16° N 22:50:32 10° NE night (unlit)
01 Oct - 00:23:17 10° NW 00:25:51 20° NNE 00:28:23 10° ENE night (unlit)
01 Oct - 01:59:25 10° NW 02:02:43 83° NE 02:05:59 10° ESE night (unlit)
01 Oct - 03:37:31 10° WSW 03:38:45 12° SW 03:39:59 10° SSW night (unlit)
01 Oct - 18:40:19 10° S 18:42:43 19° SE 18:45:08 10° E daylight
01 Oct - 20:15:47 10° WSW 20:18:58 51° NNW 20:22:10 10° NE visible
01 Oct - 21:53:44 10° NW 21:56:01 17° N 21:58:17 10° NNE visible
01 Oct - 23:31:10 10° NNW 23:33:25 17° N 23:35:41 10° NE night (unlit)
02 Oct - 01:07:19 10° NW 01:10:30 47° NNE 01:13:41 10° ESE night (unlit)
02 Oct - 02:44:11 10° W 02:46:47 22° SW 02:49:23 10° S night (unlit)
02 Oct - 17:50:19 10° SE 17:50:47 10° SE 17:51:13 10° ESE daylight
02 Oct - 19:23:30 10° SW 19:26:45 89° SSE 19:30:01 10° NE visible
02 Oct - 21:01:01 10° WNW 21:03:36 21° NNW 21:06:10 10° NE visible
02 Oct - 22:38:54 10° NW 22:40:58 15° N 22:43:01 10° NE night (unlit)
03 Oct - 00:15:15 10° NW 00:18:12 30° NNE 00:21:10 10° E night (unlit)
03 Oct - 01:51:38 10° WNW 01:54:44 40° SW 01:57:51 10° SSE night (unlit)
03 Oct - 18:31:29 10° SW 18:34:37 46° SE 18:37:45 10° ENE daylight
03 Oct - 20:08:20 10° W 20:11:12 28° NNW 20:14:05 10° NE visible
03 Oct - 21:46:27 10° NW 21:48:28 15° N 21:50:30 10° NE visible
03 Oct - 23:23:10 10° NW 23:25:49 22° NNE 23:28:29 10° ENE night (unlit)
04 Oct - 00:59:20 10° WNW 01:02:37 79° SW 01:05:53 10° SE night (unlit)
04 Oct - 17:39:51 10° S 17:42:32 24° SE 17:45:14 10° E daylight
04 Oct - 19:15:45 10° WSW 19:18:52 42° NNW 19:22:00 10° NE visible
04 Oct - 20:53:48 10° NW 20:55:59 16° N 20:58:10 10° NNE visible
04 Oct - 22:31:02 10° NW 22:33:23 18° NNE 22:35:43 10° ENE visible
05 Oct - 00:07:09 10° NW 00:10:24 57° NNE 00:13:37 10° ESE night (unlit)
05 Oct - 01:44:20 10° W 01:46:35 17° SW 01:48:50 10° S night (unlit)
05 Oct - 16:48:56 10° SSE 16:50:31 13° SE 16:52:07 10° E daylight
05 Oct - 18:23:21 10° WSW 18:26:36 74° NNW 18:29:51 10° NE daylight
05 Oct - 20:01:03 10° WNW 20:03:30 19° NNW 20:05:59 10° NE visible
05 Oct - 21:38:48 10° NW 21:40:54 16° N 21:43:00 10° NE visible
05 Oct - 23:15:02 10° NW 23:18:05 35° NNE 23:21:07 10° E night (unlit)
06 Oct - 00:51:34 10° WNW 00:54:31 32° SW 00:57:29 10° SSE night (unlit)
06 Oct - 17:31:11 10° SW 17:34:23 59° SE 17:37:36 10° ENE daylight
06 Oct - 19:08:18 10° WNW 19:11:04 25° NNW 19:13:51 10° NE visible
06 Oct - 20:46:22 10° NW 20:48:22 15° N 20:50:23 10° NE visible
06 Oct - 22:22:55 10° NW 22:25:41 24° NNE 22:28:27 10° ENE visible
06 Oct - 23:59:09 10° WNW 00:02:23 62° SW 00:05:37 10° SE night (unlit)
07 Oct - 16:39:21 10° SSW 16:42:14 30° SE 16:45:09 10° ENE daylight
07 Oct - 18:15:37 10° W 18:18:40 36° NNW 18:21:43 10° NE daylight
07 Oct - 19:53:44 10° NW 19:55:50 16° N 19:57:56 10° NE visible
07 Oct - 21:30:47 10° NW 21:33:14 19° NNE 21:35:41 10° ENE visible
07 Oct - 23:06:53 10° NW 23:10:09 70° NNE 23:13:25 10° ESE night (unlit)
08 Oct - 00:44:28 10° W 00:46:15 14° SW 00:48:02 10° SSW night (unlit)
08 Oct - 15:48:03 10° S 15:50:10 16° SE 15:52:17 10° E daylight
08 Oct - 17:23:07 10° WSW 17:26:20 59° NNW 17:29:33 10° NE daylight
08 Oct - 19:00:58 10° WNW 19:03:18 18° NNW 19:05:40 10° NNE daylight
08 Oct - 20:38:32 10° NNW 20:40:43 16° N 20:42:53 10° NE visible
08 Oct - 22:14:42 10° NW 22:17:50 41° NNE 22:20:57 10° E visible
08 Oct - 23:51:26 10° WNW 23:54:11 26° SW 23:56:57 10° SSE night (unlit)
09 Oct - 16:30:49 10° SW 16:34:03 75° SE 16:37:18 10° ENE daylight
09 Oct - 18:08:09 10° WNW 18:10:48 23° NNW 18:13:29 10° NE daylight
09 Oct - 19:46:09 10° NW 19:48:09 15° N 19:50:10 10° NE visible
09 Oct - 21:22:34 10° NW 21:25:25 27° NNE 21:28:17 10° E visible
09 Oct - 22:58:52 10° WNW 23:02:02 49° SW 23:05:12 10° SE night (unlit)
